Flag for Canada Weather past 2 weeks in Thunder Bay, Ontario, Canada

Now
63 °F

Sprinkles. Low clouds.


Feels Like: 63 °F
Forecast: 59 / 69 °F
Wind: 7 mph from Southwest

Location: Thunder Bay

Current Time: Sep 1, 2014 at 8:39:24 AM

Latest Report: Sep 1, 2014 at 8:00 AM


Visibility: 3 mi

Pressure: 29.50 "Hg

Humidity: 100%

Dew point: 63 °F

Location of Thunder BayLocation

Historic Weather in Thunder Bay — Graph

°F

Thunder Bay temperature yesterday

Maximum temperature yesterday: 66 °F (at 3:00 PM)
Minimum temperature yesterday: 46 °F (at 6:00 AM)
Average temperature yesterday: 57 °F

Past Weeks' High & Low Weather Summary

 TemperatureHumidityPressure
High82 °F (Aug 25, 2:00 PM)100% (Aug 18, 3:00 AM)30.18 "Hg (Aug 18, 3:00 AM)
Low41 °F (Aug 28, 6:00 AM)39% (Aug 25, 6:00 PM)29.51 "Hg (Sep 1, 7:00 AM)
Average61 °F86%29.94 "Hg
* Reported Aug 17 7:00 AM — Sep 1 7:00 AM, Thunder Bay, Weather by CustomWeather, © 2014

Note: Actual official high and low records may vary slightly from our data, if they occured in-between our weather recording intervals... More about our weather records

Advertising

Thunder Bay weather history for previous 24 hours

 ConditionsComfort  
Time TempWeatherWind HumidityBarometerVisibility
7:00 AM
Sep 1
63 °FSprinkles. Overcast.5 mph100%29.51 "Hg10 mi
6:00 AM64 °FOvercast.No wind94%29.54 "Hg15 mi
5:00 AM63 °FThunderstorms. Mostly cloudy.5 mph94%29.57 "Hg10 mi
4:00 AM61 °FMostly cloudy.2 mph100%29.60 "Hg15 mi
3:00 AM61 °FSprinkles. Mostly cloudy.9 mph94%29.59 "Hg15 mi
2:00 AM61 °FOvercast.8 mph94%29.65 "Hg15 mi
1:00 AM59 °FMostly cloudy.9 mph94%29.66 "Hg15 mi
12:00 AM59 °FMostly cloudy.14 mph94%29.66 "Hg15 mi
11:00 PM
Aug 31
59 °FOvercast.15 mph94%29.70 "Hg15 mi
10:00 PM59 °FMostly cloudy.14 mph94%29.72 "Hg15 mi
9:00 PM61 °FPartly sunny.10 mph83%29.75 "Hg15 mi
8:00 PM59 °FBroken clouds.8 mph88%29.77 "Hg20 mi
7:00 PM63 °FBroken clouds.14 mph77%29.78 "Hg20 mi
6:00 PM63 °FBroken clouds.14 mph77%29.78 "Hg20 mi
5:00 PM66 °FBroken clouds.17 mph73%29.81 "Hg20 mi
4:00 PM66 °FPartly sunny.14 mph73%29.84 "Hg20 mi
3:00 PM66 °FBroken clouds.14 mph73%29.88 "Hg20 mi
2:00 PM64 °FBroken clouds.10 mph78%29.90 "Hg20 mi
1:00 PM63 °FPartly sunny.9 mph83%29.91 "Hg15 mi
12:00 PM63 °FOvercast.8 mph83%29.93 "Hg20 mi
11:00 AM63 °FPartly sunny.8 mph83%29.93 "Hg20 mi
10:00 AM54 °FBroken clouds.No wind94%29.95 "Hg20 mi
9:00 AM50 °FPartly sunny.5 mph100%29.96 "Hg20 mi
8:00 AM46 °FPassing clouds.3 mph93%29.95 "Hg15 mi
Weather by CustomWeather, © 2014

See weather overviewHow to use our weather pages